Theta_e
304 305 305 304 303 303 302 302 300 300 300 300 302 302 302 302 303 303 301 300 301 301 301 302 304 307 307 306 310 309 306 303 306 307 309 309 315 314 315 315 315 316 316 319 319 319 320 312 315 325 323 322 323 324
304 304 303 302 302 301 299 298 299 299 299 300 300 301 301 302 302 303 302 301 300 301 301 303 302 303 304 305 307 308 307 305 309 306 307 310 313 313 314 314 313 316 313 314 314 314 309 312 318 316 317 318 320 321
302 302 301 301 297 295 296 298 298 299 299 299 300 300 301 302 303 303 302 301 300 299 301 302 305 308 307 307 307 309 304 303 303 305 306 309 310 311 314 314 313 312 311 309 312 315 314 314 315 316 316 316 317 319
301 301 298 294 295 297 295 296 297 298 299 300 300 300 301 301 301 302 302 301 300 301 307 305 306 306 306 307 308 308 304 302 302 305 308 310 311 311 312 312 314 312 312 313 314 315 315 315 315 315 316 316 317 317
300 296 294 296 297 296 297 295 295 296 297 299 301 301 302 301 302 302 301 301 300 302 308 306 305 307 307 310 309 307 304 304 304 306 309 312 314 314 312 312 311 310 312 313 315 313 314 315 315 315 316 316 315 316
294 292 295 295 295 296 296 296 296 296 297 298 299 300 300 301 302 301 302 305 302 300 306 307 303 306 308 309 308 306 305 305 305 306 305 309 310 312 311 313 312 309 310 310 312 311 312 312 313 313 314 315 315 315
294 294 294 294 294 295 296 296 296 297 298 298 299 298 299 301 301 301 306 305 304 303 308 305 305 308 308 310 309 308 307 308 309 311 307 308 311 313 309 311 311 309 311 310 311 311 312 312 313 312 313 313 313 313
294 294 294 295 295 295 295 295 296 296 296 298 300 301 302 302 302 302 305 306 306 307 307 307 307 307 310 309 310 307 309 309 308 308 309 310 310 308 310 313 311 311 311 313 312 310 310 310 310 311 312 312 312 312
292 294 294 294 294 295 295 295 295 296 299 302 304 305 304 304 306 309 308 307 307 308 308 307 307 306 310 310 310 307 306 309 307 310 309 309 308 309 311 311 312 312 312 312 311 311 311 311 310 311 310 311 311 310
293 293 293 294 294 294 294 295 295 298 301 303 306 306 309 305 303 306 306 307 306 307 307 309 305 306 309 312 312 307 307 309 310 309 309 309 307 310 310 310 310 310 309 308 309 311 311 311 310 310 309 309 309 309
292 293 293 293 294 294 295 296 296 298 300 300 300 303 302 303 304 307 310 307 307 308 305 305 306 306 307 313 310 306 303 307 310 310 312 305 304 311 308 308 308 310 309 308 308 309 309 310 309 309 309 308 307 306
292 292 292 293 294 295 297 297 297 296 297 297 298 300 301 303 306 309 309 310 311 309 308 308 308 306 309 307 305 305 305 305 312 313 315 310 311 310 310 311 308 307 307 308 308 309 309 308 308 308 308 306 305 306
292 292 292 293 296 296 297 296 296 295 296 301 302 303 303 305 306 310 307 310 312 311 311 311 312 310 308 308 306 305 306 304 305 305 312 312 313 310 308 308 308 306 308 308 310 309 309 309 309 309 309 306 305 305
291 292 292 294 295 295 294 294 293 293 297 304 305 306 305 305 308 307 308 309 311 311 311 308 310 310 308 308 308 309 308 306 305 306 311 311 312 312 309 308 307 307 308 308 308 310 309 308 307 308 307 306 305 305
291 292 293 295 294 293 292 291 291 294 298 302 304 306 305 305 306 307 308 308 310 310 309 309 310 308 306 311 311 309 311 306 301 302 305 309 311 312 312 310 308 307 307 308 307 308 309 308 306 307 307 306 306 305
292 292 295 294 293 292 292 292 295 295 299 302 303 305 304 304 306 306 306 308 309 312 312 309 309 310 311 309 310 310 307 306 303 302 308 310 311 312 311 309 308 307 307 306 308 309 309 308 307 307 307 306 306 305
291 292 292 292 291 293 293 295 298 300 300 303 303 303 302 303 305 305 305 305 306 312 313 313 313 310 308 307 307 305 306 304 305 307 308 309 309 310 309 309 310 309 306 307 308 309 308 308 307 307 305 304 304 304
292 291 291 290 292 294 293 298 299 301 302 302 302 301 300 300 301 301 303 304 305 311 312 313 311 312 309 308 302 305 307 307 308 308 309 309 310 309 308 307 309 308 307 308 309 309 307 307 306 305 305 304 304 303
292 292 291 292 293 295 294 297 299 299 300 300 300 300 300 301 302 303 304 304 305 306 310 312 313 311 308 308 308 308 308 311 311 310 308 307 307 309 310 308 309 307 306 306 308 308 306 306 306 306 305 304 302 302
291 290 291 293 293 295 295 295 298 300 298 299 299 300 299 300 301 301 303 303 304 305 312 313 311 310 309 308 307 307 309 309 308 309 310 309 310 311 308 308 307 307 307 307 308 307 306 305 305 306 305 303 302 301
291 292 291 292 293 295 294 295 296 296 298 299 300 298 298 298 298 300 301 300 301 304 308 309 309 308 307 307 306 306 305 306 308 308 309 310 311 310 309 308 307 307 305 306 307 306 305 305 305 305 304 302 302 301
291 291 292 293 293 294 293 295 296 296 296 296 296 295 295 295 298 298 298 299 301 301 301 304 306 308 309 308 308 307 308 309 308 307 308 308 309 308 309 309 308 306 305 305 306 307 306 306 305 305 303 302 301 300
293 293 293 293 295 293 293 295 297 297 298 297 296 298 298 297 298 299 300 302 301 300 303 305 305 305 308 309 310 309 309 309 307 307 307 308 309 309 309 308 308 307 307 306 307 307 305 305 305 303 302 301 300 299
293 292 295 296 293 290 295 295 295 296 297 296 298 298 298 298 299 299 301 300 301 303 303 304 305 308 307 308 308 308 308 309 309 309 309 308 308 308 310 310 308 307 307 307 306 305 304 304 305 303 302 300 299 299
292 287 292 291 292 294 296 295 296 294 297 296 297 297 296 297 297 297 299 302 302 301 302 304 305 305 307 310 309 308 310 309 306 306 307 308 308 307 308 309 308 308 308 306 305 304 304 303 302 302 301 300 298 298
287 290 289 293 293 293 293 295 295 294 295 296 300 301 299 299 300 302 304 302 301 300 299 302 303 304 304 304 306 307 307 307 307 305 307 309 308 308 308 308 307 307 307 306 305 304 303 302 301 301 300 299 298 297
290 289 291 293 293 293 292 292 291 291 294 296 296 298 300 302 302 302 300 298 300 299 299 300 302 303 304 305 308 307 307 307 308 308 309 309 309 309 308 307 307 307 307 307 305 304 303 302 300 299 298 298 297 296
292 293 293 290 293 293 294 294 293 294 294 295 297 297 297 299 300 298 299 298 301 300 300 299 300 300 303 301 301 301 304 306 307 307 307 307 306 306 307 308 307 307 306 305 305 304 303 302 300 299 297 297 296 295
294 294 294 294 294 295 294 294 294 293 293 293 295 296 298 299 293 295 294 293 294 294 296 298 299 299 299 301 300 299 298 300 304 306 305 304 303 303 304 304 302 303 304 304 304 303 303 302 300 298 297 296 295 294
293 293 294 295 296 296 295 296 294 294 294 294 294 296 298 295 290 290 290 291 291 292 293 294 295 297 297 298 298 299 297 297 298 299 303 304 304 304 304 303 301 300 302 302 303 302 301 300 298 296 295 293 293 292
294 295 296 296 297 296 296 295 295 296 295 295 295 296 297 293 291 289 288 289 289 290 291 292 293 295 295 294 295 295 297 296 296 298 300 301 301 302 303 304 303 299 297 300 299 297 296 295 294 293 293 292 291 291
295 297 298 299 299 298 297 297 295 296 296 296 296 296 296 294 292 290 288 288 289 289 290 291 292 293 294 293 292 292 291 293 296 296 296 297 297 299 300 300 301 300 297 297 297 296 296 294 293 292 291 291 290 290
294 296 298 298 297 298 297 297 296 295 295 295 292 293 292 291 288 289 288 287 287 288 290 290 290 291 290 291 291 292 291 291 293 295 296 296 296 296 297 296 296 295 294 293 293 292 292 291 291 290 290 289 288 287
Wind_Speed
23 24 24 25 25 25 27 28 27 26 25 23 23 20 19 18 16 13 13 13 7 3 11 14 12 11 8 5 3 4 5 4 3 6 3 3 3 3 3 3 6 3 3 2 2 2 2 12 15 5 5 8 13 15
24 24 24 24 25 27 25 26 26 25 25 24 23 21 20 18 16 14 10 6 16 8 7 24 33 39 27 31 4 2 2 2 2 3 3 3 3 3 4 3 3 2 3 3 4 2 6 14 10 13 11 12 12 14
23 21 23 26 27 26 24 24 25 25 26 25 23 21 20 18 18 15 19 16 9 3 6 3 7 6 16 16 22 3 2 3 3 1 2 2 3 2 3 2 4 2 4 1 3 3 7 15 14 12 12 12 17 18
23 24 26 26 25 24 24 23 25 25 26 24 24 22 21 20 20 20 20 13 6 7 3 6 10 18 22 13 19 17 7 3 1 1 2 3 3 3 2 3 2 1 2 5 4 7 5 9 10 13 15 17 19 12
25 25 24 25 25 25 25 25 26 26 26 25 24 22 22 21 20 22 30 23 24 6 3 6 20 7 7 19 22 18 14 5 2 2 3 3 2 2 1 2 2 3 2 2 2 6 4 6 8 8 14 17 24 8
23 24 23 24 25 25 25 26 27 28 27 28 26 25 23 18 17 10 3 1 13 23 3 3 6 5 7 20 18 14 9 4 2 2 4 3 2 3 0 2 4 3 1 2 3 6 3 7 8 13 12 17 20 18
21 22 22 23 24 25 25 26 27 29 30 31 31 29 24 18 12 5 4 5 7 12 3 4 4 4 11 9 3 3 8 3 3 2 3 3 2 2 2 1 3 3 5 4 3 5 6 9 7 13 12 12 14 17
19 20 21 22 23 25 26 27 28 31 33 34 29 24 22 20 16 10 11 16 10 6 1 3 4 5 5 3 2 4 4 3 3 3 3 2 2 2 2 4 2 3 4 6 6 6 3 6 10 10 8 9 13 12
19 20 22 22 23 25 26 28 28 29 31 29 24 17 2 3 4 3 2 5 14 4 2 3 2 3 2 3 2 2 3 3 2 4 3 3 2 1 4 2 2 4 1 4 5 6 7 6 5 7 7 9 9 9
19 20 21 22 23 25 26 27 24 26 26 21 8 1 2 4 11 4 1 0 0 2 2 4 2 3 2 1 3 2 1 2 0 4 0 3 2 2 5 5 4 4 5 2 4 5 4 4 6 5 6 5 8 10
20 21 22 23 24 25 25 24 18 24 12 11 7 3 8 12 3 2 3 3 3 3 3 4 7 4 2 3 3 1 2 2 2 3 1 1 2 4 5 5 3 6 1 6 6 4 4 4 4 3 3 8 9 12
19 21 22 24 24 21 18 13 16 19 14 12 16 15 6 3 3 3 3 3 5 4 4 4 5 5 3 3 2 3 1 3 3 1 1 2 3 6 5 5 3 4 6 6 6 6 4 2 2 4 6 6 9 11
20 21 22 22 15 14 14 18 21 22 27 3 3 2 2 2 2 4 4 4 3 4 4 4 3 4 1 3 2 3 2 4 2 2 3 3 2 5 6 5 4 5 7 6 7 6 6 3 8 9 7 13 14 18
20 22 22 13 10 15 20 26 27 23 6 3 3 4 4 4 5 5 4 3 4 3 4 4 2 3 2 3 3 2 4 2 2 2 3 2 2 2 4 5 5 7 8 7 7 8 4 3 6 16 15 13 17 14
22 24 17 7 18 24 28 29 19 7 3 3 3 4 6 6 4 4 5 5 7 5 4 0 2 3 0 2 2 1 1 2 5 4 3 3 3 4 7 4 4 6 7 6 6 5 5 6 8 13 11 13 17 15
22 18 1 22 26 29 28 22 7 6 3 3 5 4 4 3 5 3 3 5 5 3 4 3 2 4 3 4 3 5 4 5 4 3 3 5 7 9 6 6 6 6 5 4 9 10 10 7 7 11 14 15 14 18
17 4 19 24 24 27 21 4 3 4 4 4 4 4 5 6 8 9 4 4 6 2 3 2 4 7 2 2 3 4 5 4 4 3 4 6 6 6 7 5 6 7 7 7 8 9 8 10 9 16 8 16 20 18
16 20 22 23 21 22 6 4 4 4 6 5 4 3 3 4 7 6 6 6 1 3 4 3 3 1 4 5 3 4 4 3 3 3 4 8 11 11 6 7 12 13 11 13 12 10 15 15 11 9 14 14 17 17
21 22 22 14 13 7 3 4 4 4 5 4 4 3 3 5 6 9 7 9 6 6 3 4 3 3 3 4 4 3 4 4 4 4 4 8 12 10 9 10 15 14 13 13 13 11 17 21 16 17 18 16 13 12
22 22 15 10 12 3 3 4 5 4 4 4 3 6 4 4 6 4 7 7 4 3 3 5 6 4 4 5 5 4 5 5 4 3 1 2 4 5 5 13 12 19 14 11 16 19 18 16 15 20 20 19 18 13
21 2 12 13 4 9 3 3 4 4 4 3 4 3 4 3 4 6 4 2 1 3 2 3 3 5 7 6 6 6 5 6 5 5 5 4 3 6 8 10 18 17 8 9 7 13 18 14 17 20 21 20 19 19
13 15 8 6 5 4 4 9 4 4 3 4 6 5 4 3 4 3 3 1 3 4 4 4 6 7 8 6 6 10 9 10 11 4 5 8 7 7 5 12 8 4 7 14 16 14 17 20 18 25 24 20 19 17
9 4 5 5 4 3 6 8 4 4 3 3 4 5 4 3 3 3 3 3 4 3 8 8 11 12 8 18 14 5 15 13 5 5 6 10 14 15 12 15 17 12 7 13 24 23 21 25 29 27 25 23 21 19
5 3 3 3 4 4 4 4 3 3 3 3 3 9 9 5 3 3 5 3 4 8 9 13 10 8 4 4 1 4 8 15 9 11 15 11 5 6 19 19 18 17 22 27 27 27 26 28 29 27 24 21 20 19
1 5 3 6 4 3 4 3 4 2 5 5 5 4 3 2 2 2 5 3 6 8 9 10 9 8 8 4 5 5 8 5 5 5 14 23 16 12 10 14 20 24 25 25 19 23 24 28 29 27 24 23 22 19
3 4 6 4 3 3 2 3 4 3 8 4 4 3 2 3 2 2 3 6 6 7 8 8 7 8 8 8 8 5 6 5 13 4 12 24 22 15 9 9 6 11 18 26 27 22 23 24 27 26 24 24 22 21
4 5 4 4 3 3 4 3 3 3 5 4 3 5 5 6 6 4 2 2 2 6 17 15 12 8 7 8 14 20 20 19 6 5 21 26 29 31 28 18 11 25 28 33 32 32 29 27 27 27 26 26 26 22
5 4 5 4 6 2 5 3 3 4 4 3 3 1 2 2 2 2 3 21 15 7 12 18 22 22 22 21 22 23 20 22 22 23 21 18 10 6 11 20 26 26 28 30 33 34 34 34 30 29 28 28 23 20
4 3 4 11 7 4 4 4 4 4 3 2 1 1 1 3 6 5 11 19 20 19 16 16 18 19 23 20 25 25 25 26 13 13 10 5 5 16 16 6 12 28 31 27 32 37 35 33 33 32 30 29 24 20
5 3 4 4 3 4 4 5 4 3 3 4 3 3 2 3 14 21 21 22 20 16 16 15 16 18 14 14 12 15 23 24 21 11 5 4 5 9 10 6 3 10 30 35 35 33 33 33 34 31 29 27 23 21
3 1 4 4 4 3 8 7 9 9 4 4 4 4 3 4 4 19 27 22 18 15 17 16 16 17 15 13 12 8 9 25 24 21 12 11 11 12 7 7 6 7 14 35 34 33 33 29 29 29 27 25 22 21
3 4 3 4 6 4 5 3 3 3 2 1 5 4 4 3 4 5 25 26 19 15 17 17 15 15 17 17 19 20 15 15 18 19 20 22 22 18 14 12 14 18 13 19 26 30 32 32 30 28 25 21 18 16
3 4 2 3 3 4 4 2 2 2 4 4 6 6 4 3 4 5 16 27 21 18 17 18 18 18 21 21 19 21 23 22 20 17 15 16 16 20 24 28 30 29 28 28 25 24 25 26 25 23 21 21 20 18
Wind_Direction
321 320 320 319 319 319 319 320 321 320 321 321 321 321 320 320 321 310 290 307 244 248 276 261 273 268 272 274 276 326 334 358 329 6 345 336 304 335 301 310 332 1 281 236 220 243 286 313 289 84 329 319 334 327
316 317 317 317 318 319 321 320 320 320 320 319 316 313 316 317 316 312 278 270 298 252 262 292 284 273 254 249 233 244 220 282 316 335 360 306 301 311 326 325 337 352 357 313 1 40 280 276 16 7 356 352 311 317
313 312 313 318 319 320 322 323 322 320 321 322 316 312 311 313 313 303 290 295 291 259 277 257 250 276 328 239 210 176 215 201 296 175 291 283 286 315 321 315 315 340 32 333 236 30 26 12 354 357 341 340 304 278
305 313 317 317 319 320 319 318 317 318 322 323 323 316 310 308 308 304 285 275 241 268 276 280 312 283 293 251 192 199 140 106 227 240 237 260 262 217 309 285 293 261 326 326 315 352 349 8 353 333 341 331 340 6
310 315 320 320 319 319 318 317 312 309 315 320 319 316 312 309 308 305 292 265 230 221 297 294 306 291 217 172 164 171 140 123 224 260 233 243 244 214 24 288 307 328 335 34 351 282 339 319 262 357 9 339 334 359
317 319 320 319 319 322 322 321 320 318 313 309 309 309 311 312 317 330 309 325 202 201 281 304 289 293 170 180 172 163 166 147 211 226 250 266 242 114 159 292 257 297 327 200 265 289 260 276 21 35 14 0 360 30
321 322 322 322 322 321 322 321 320 320 318 313 311 311 309 305 287 225 254 129 137 198 262 304 291 266 193 178 206 163 173 188 196 251 253 243 298 158 127 299 291 330 312 329 325 347 0 5 357 29 22 355 7 25
325 324 322 323 325 325 322 319 316 316 316 316 316 312 302 291 280 263 268 226 217 213 258 269 271 319 165 199 250 172 154 161 215 227 283 250 336 66 52 303 19 332 8 6 360 6 343 7 15 8 37 16 24 23
323 322 323 324 325 325 326 325 322 324 326 324 322 312 81 136 194 292 223 193 188 205 242 260 225 266 340 6 279 324 140 176 186 205 245 102 333 72 224 201 289 337 104 347 11 15 51 62 62 4 7 28 27 23
323 322 324 324 326 326 324 326 329 334 332 332 337 27 114 15 332 292 211 106 145 241 247 243 234 267 52 171 267 344 357 248 14 248 290 92 242 243 197 188 222 233 253 309 64 40 34 41 60 31 4 12 35 26
324 324 325 327 327 326 326 327 339 344 346 357 356 349 315 331 268 218 206 179 185 234 220 233 205 215 265 167 237 141 246 303 325 285 70 295 273 229 205 175 200 224 255 100 123 105 82 77 77 43 30 53 40 31
326 327 327 328 328 334 347 354 348 350 327 296 283 298 293 293 250 243 221 203 201 234 215 202 202 183 255 122 97 330 166 21 263 324 308 260 237 197 182 166 180 113 117 104 105 98 75 65 51 49 43 62 56 35
327 328 329 330 342 350 337 335 337 335 333 295 201 235 211 229 248 218 219 231 226 218 205 197 166 155 76 82 72 78 66 238 335 27 245 224 250 157 160 159 165 118 142 117 115 118 110 63 43 37 54 73 59 45
325 325 325 329 340 332 324 325 324 325 309 267 229 249 202 206 238 207 226 244 270 312 273 152 133 139 169 111 144 146 228 79 340 323 246 247 220 151 187 168 158 138 139 149 154 146 142 77 39 59 70 77 62 44
326 324 327 331 333 332 326 323 320 304 265 266 253 241 230 226 267 260 255 266 276 267 247 343 91 119 147 141 176 187 234 262 197 232 236 202 144 339 295 207 159 145 130 129 120 142 147 92 63 67 81 93 72 53
327 328 182 338 327 323 320 319 318 180 244 237 238 271 281 299 280 311 296 300 292 341 354 335 150 126 194 174 142 211 149 222 244 219 209 160 193 203 237 187 172 162 131 150 132 129 139 130 91 75 73 85 82 64
321 267 316 318 326 326 329 268 228 218 227 237 244 230 245 274 273 281 283 279 307 355 140 113 264 217 127 159 187 174 203 214 207 204 193 183 153 284 258 198 151 148 148 129 134 128 130 126 123 94 82 81 72 75
299 315 318 325 335 334 302 240 252 255 240 244 247 233 230 234 274 277 271 273 240 232 154 217 295 143 220 179 249 235 223 243 236 204 190 178 182 207 209 172 164 164 158 160 157 128 117 122 115 114 109 91 73 64
308 311 318 323 335 308 288 268 223 259 251 268 267 267 231 250 248 260 274 277 262 244 160 155 192 226 236 231 198 210 197 180 200 232 208 207 193 196 203 170 159 160 173 160 158 145 146 140 137 139 126 104 88 72
311 310 306 319 332 247 264 264 255 268 259 246 288 281 248 239 265 256 273 278 274 264 217 182 196 215 220 225 194 198 207 194 140 139 178 126 127 246 205 165 170 182 188 168 158 142 137 136 136 142 137 126 112 97
317 14 325 322 274 222 257 268 254 238 261 245 265 324 275 325 304 287 270 260 326 224 266 256 235 230 230 247 209 189 225 181 183 165 182 186 172 198 181 188 182 184 163 146 144 148 144 158 158 153 143 127 119 117
275 295 287 284 236 250 239 238 230 283 320 276 299 274 259 264 293 282 273 255 225 242 227 251 266 259 257 248 236 212 217 181 198 134 184 155 177 216 200 168 176 181 154 158 153 156 166 167 160 150 142 138 132 120
322 291 227 241 243 238 254 235 241 216 245 271 344 345 306 300 267 301 276 297 279 277 329 335 300 263 250 249 237 216 187 162 155 169 186 194 200 197 169 168 177 148 152 167 162 161 160 156 149 146 145 141 133 124
276 226 253 254 205 261 273 265 247 272 277 278 268 286 283 266 260 289 260 308 360 353 356 349 351 329 320 297 225 204 212 216 197 178 197 191 164 175 167 152 170 171 164 156 154 156 152 146 151 149 149 149 144 135
313 267 210 254 262 233 252 249 250 306 336 302 266 246 275 293 212 272 275 23 343 353 348 349 350 351 343 296 311 294 287 281 206 191 206 187 164 134 128 170 170 167 164 158 161 157 151 150 144 148 155 151 146 142
246 239 180 230 251 216 281 339 4 357 314 275 287 266 271 282 216 37 45 1 3 352 343 342 350 347 347 336 344 347 345 313 177 138 152 159 162 158 158 158 168 174 195 176 164 162 156 153 148 149 151 156 149 144
249 272 244 238 257 283 277 286 295 260 265 251 273 356 333 348 14 358 85 304 319 335 342 333 357 348 313 321 2 348 355 18 52 175 176 174 177 179 171 175 178 192 193 187 171 166 162 157 155 153 151 156 156 155
242 268 253 268 289 307 291 261 255 228 229 201 101 228 241 267 291 360 334 347 316 305 7 21 22 14 5 17 19 5 2 21 62 97 90 89 97 137 193 194 189 194 191 180 175 170 165 164 159 154 151 146 149 151
244 258 281 270 268 233 230 213 232 224 228 277 288 300 331 61 354 355 360 1 13 24 16 5 10 26 23 14 20 15 25 29 33 53 60 39 28 26 40 94 165 163 159 171 181 173 170 168 160 158 155 150 147 143
253 202 251 255 234 237 231 194 237 263 261 232 218 250 126 91 32 26 18 18 18 14 359 354 4 22 21 9 1 15 28 35 33 30 31 44 8 344 353 39 358 190 163 160 160 155 158 153 148 146 142 140 139 136
260 267 258 239 251 232 248 255 265 263 249 231 214 225 125 138 112 36 22 12 7 6 3 1 7 15 22 18 6 3 21 29 38 39 58 61 40 25 344 242 178 173 156 146 141 138 135 135 137 138 141 140 141 141
248 236 267 289 309 276 282 228 219 220 240 135 23 9 94 70 53 23 8 3 6 10 1 5 4 5 26 33 35 38 41 38 43 51 58 55 51 64 69 83 124 155 138 127 135 142 147 140 137 138 138 138 139 139
279 273 294 310 299 329 295 331 300 300 48 59 32 23 39 69 79 9 4 10 8 3 4 15 25 35 45 46 43 37 41 48 58 62 64 63 61 62 61 72 83 88 98 98 96 104 111 120 123 131 138 141 141 141